Back to catalog

COSMOS 2394

GLONASS

AliveNavigationMEO
NORAD 27617·PAYLOAD·🇷🇺 Russia

Launched Dec 25, 2002 from Baikonur Cosmodrome

Loading…

Next Passes (next 24 hours)

TLE

FreshSource: Space-Track

Epoch: Sep 13, 2026, 08:18 UTC

1 27617U 02060A   26256.34638576 -.00000051  00000-0  00000-0 0  9991
2 27617  65.3725 312.6704 0002332 277.9087  82.1404  2.13102579184604

Track COSMOS 2394 in real time with AllMySat

Download on the App Store